Previsão horária em Barmashove

Hoje, 5 Agosto, Quinta-feira

Tempo Temperatura Precipitação Vento Pressão Humidade
00:00 +25°C° 0 mm 2 m/s 756 mmHg 50%
01:00 +25°C° 0 mm 2 m/s 756 mmHg 51%
02:00 +24°C° 0 mm 1 m/s 756 mmHg 53%
03:00 +24°C° 0 mm 1 m/s 756 mmHg 54%
04:00 +24°C° 0 mm 2 m/s 756 mmHg 55%
05:00 +23°C° 0 mm 2 m/s 755 mmHg 57%
06:00 +25°C° 0 mm 2 m/s 755 mmHg 52%
07:00 +27°C° 0 mm 3 m/s 755 mmHg 48%
08:00 +29°C° 0 mm 4 m/s 755 mmHg 43%
09:00 +30°C° 0 mm 4 m/s 755 mmHg 40%
10:00 +32°C° 0 mm 4 m/s 755 mmHg 38%
11:00 +33°C° 0 mm 4 m/s 755 mmHg 35%
12:00 +34°C° 0 mm 4 m/s 754 mmHg 33%
13:00 +35°C° 0 mm 4 m/s 754 mmHg 32%
14:00 +36°C° 0 mm 5 m/s 753 mmHg 30%
15:00 +35°C° 0 mm 5 m/s 753 mmHg 33%
16:00 +35°C° 0 mm 5 m/s 753 mmHg 36%
17:00 +34°C° 0 mm 5 m/s 752 mmHg 38%
18:00 +32°C° 0 mm 4 m/s 752 mmHg 47%
19:00 +29°C° 0 mm 3 m/s 752 mmHg 55%
20:00 +27°C° 0 mm 2 m/s 752 mmHg 63%
21:00 +26°C° 0 mm 3 m/s 752 mmHg 67%
22:00 +26°C° 0 mm 3 m/s 751 mmHg 70%
23:00 +25°C° 0 mm 3 m/s 751 mmHg 73%

Amanhã, 6 Agosto, Sexta-feira

Tempo Temperatura Precipitação Vento Pressão Humidade
00:00 +24°C° 0 mm 2 m/s 751 mmHg 73%
01:00 +24°C° 0 mm 2 m/s 751 mmHg 73%
02:00 +24°C° 0 mm 2 m/s 751 mmHg 73%
03:00 +23°C° 0 mm 2 m/s 751 mmHg 74%
04:00 +23°C° 0 mm 2 m/s 750 mmHg 74%
05:00 +23°C° 0 mm 2 m/s 750 mmHg 75%
06:00 +25°C° 0 mm 3 m/s 750 mmHg 66%
07:00 +28°C° 0 mm 4 m/s 749 mmHg 58%
08:00 +30°C° 0 mm 5 m/s 749 mmHg 50%
09:00 +33°C° 0 mm 5 m/s 749 mmHg 44%
10:00 +34°C° 0 mm 5 m/s 749 mmHg 38%
11:00 +36°C° 0 mm 5 m/s 749 mmHg 33%
12:00 +37°C° 0 mm 5 m/s 748 mmHg 31%
13:00 +37°C° 0 mm 5 m/s 748 mmHg 29%
14:00 +37°C° 0 mm 5 m/s 748 mmHg 28%
15:00 +37°C° 0 mm 5 m/s 747 mmHg 29%
16:00 +36°C° 0 mm 5 m/s 747 mmHg 30%
17:00 +35°C° 0 mm 5 m/s 746 mmHg 32%
18:00 +33°C° 0 mm 4 m/s 747 mmHg 40%
19:00 +30°C° 0 mm 4 m/s 747 mmHg 48%
20:00 +27°C° 0 mm 3 m/s 747 mmHg 56%
21:00 +26°C° 0 mm 3 m/s 747 mmHg 61%
22:00 +25°C° 0 mm 3 m/s 747 mmHg 65%
23:00 +24°C° 0 mm 3 m/s 747 mmHg 69%

Depois de amanhã, 7 Agosto, Sábado

Tempo Temperatura Precipitação Vento Pressão Humidade
00:00 +24°C° 0.2 mm 3 m/s 748 mmHg 72%
01:00 +22°C° 0.2 mm 3 m/s 748 mmHg 75%
02:00 +22°C° 0.2 mm 3 m/s 748 mmHg 78%
03:00 +21°C° 0 mm 3 m/s 748 mmHg 79%
04:00 +21°C° 0 mm 3 m/s 748 mmHg 80%
05:00 +21°C° 0 mm 3 m/s 748 mmHg 80%
06:00 +23°C° 0 mm 4 m/s 749 mmHg 73%
07:00 +25°C° 0 mm 5 m/s 749 mmHg 66%
08:00 +27°C° 0 mm 5 m/s 749 mmHg 59%
09:00 +28°C° 0 mm 5 m/s 750 mmHg 54%
10:00 +29°C° 0 mm 6 m/s 750 mmHg 49%
11:00 +32°C° 0 mm 6 m/s 750 mmHg 43%
12:00 +32°C° 0 mm 6 m/s 750 mmHg 42%
13:00 +33°C° 0 mm 6 m/s 750 mmHg 40%
14:00 +33°C° 0 mm 6 m/s 750 mmHg 38%
15:00 +33°C° 0 mm 6 m/s 751 mmHg 38%
16:00 +33°C° 0 mm 6 m/s 751 mmHg 38%
17:00 +33°C° 0 mm 6 m/s 751 mmHg 38%
18:00 +30°C° 0 mm 6 m/s 751 mmHg 41%
19:00 +29°C° 0 mm 6 m/s 752 mmHg 44%
20:00 +27°C° 0 mm 6 m/s 752 mmHg 47%
21:00 +26°C° 0 mm 6 m/s 752 mmHg 47%
22:00 +24°C° 0 mm 6 m/s 753 mmHg 46%
23:00 +23°C° 0 mm 6 m/s 753 mmHg 46%

8 Agosto, Domingo

Tempo Temperatura Precipitação Vento Pressão Humidade
00:00 +22°C° 0 mm 5 m/s 753 mmHg 47%
01:00 +21°C° 0 mm 5 m/s 754 mmHg 49%
02:00 +20°C° 0 mm 5 m/s 754 mmHg 50%
03:00 +20°C° 0 mm 4 m/s 754 mmHg 53%
04:00 +20°C° 0 mm 4 m/s 754 mmHg 56%
05:00 +19°C° 0 mm 4 m/s 754 mmHg 58%
06:00 +21°C° 0 mm 5 m/s 754 mmHg 54%
07:00 +23°C° 0 mm 5 m/s 754 mmHg 49%
08:00 +26°C° 0 mm 6 m/s 754 mmHg 45%
09:00 +28°C° 0 mm 5 m/s 754 mmHg 42%
10:00 +30°C° 0 mm 5 m/s 754 mmHg 38%
11:00 +32°C° 0 mm 5 m/s 754 mmHg 35%
12:00 +33°C° 0 mm 5 m/s 754 mmHg 32%
13:00 +34°C° 0 mm 5 m/s 754 mmHg 30%
14:00 +35°C° 0 mm 5 m/s 754 mmHg 27%
15:00 +35°C° 0 mm 5 m/s 754 mmHg 27%
16:00 +35°C° 0 mm 5 m/s 754 mmHg 26%
17:00 +35°C° 0 mm 5 m/s 754 mmHg 26%
18:00 +33°C° 0 mm 5 m/s 754 mmHg 28%
19:00 +30°C° 0 mm 4 m/s 754 mmHg 30%
20:00 +28°C° 0 mm 4 m/s 755 mmHg 32%
21:00 +27°C° 0 mm 4 m/s 755 mmHg 32%
22:00 +26°C° 0 mm 4 m/s 755 mmHg 32%
23:00 +25°C° 0 mm 4 m/s 755 mmHg 33%

9 Agosto, Segunda-feira

Tempo Temperatura Precipitação Vento Pressão Humidade
00:00 +25°C° 0 mm 4 m/s 755 mmHg 37%
01:00 +24°C° 0 mm 3 m/s 755 mmHg 40%
02:00 +24°C° 0 mm 3 m/s 755 mmHg 44%
03:00 +24°C° 0 mm 3 m/s 755 mmHg 48%
04:00 +24°C° 0 mm 3 m/s 755 mmHg 52%
05:00 +22°C° 0 mm 3 m/s 755 mmHg 56%
06:00 +26°C° 0 mm 3 m/s 755 mmHg 52%
07:00 +28°C° 0 mm 3 m/s 755 mmHg 48%
08:00 +30°C° 0 mm 4 m/s 755 mmHg 43%
09:00 +32°C° 0 mm 4 m/s 755 mmHg 39%
10:00 +34°C° 0 mm 3 m/s 755 mmHg 36%
11:00 +36°C° 0 mm 3 m/s 755 mmHg 32%
12:00 +36°C° 0 mm 3 m/s 755 mmHg 30%
13:00 +37°C° 0 mm 3 m/s 754 mmHg 28%
14:00 +38°C° 0 mm 3 m/s 754 mmHg 26%
15:00 +38°C° 0 mm 3 m/s 754 mmHg 25%
16:00 +38°C° 0 mm 4 m/s 754 mmHg 24%
17:00 +38°C° 0 mm 4 m/s 754 mmHg 24%
18:00 +36°C° 0 mm 4 m/s 754 mmHg 27%
19:00 +33°C° 0 mm 4 m/s 754 mmHg 30%
20:00 +30°C° 0 mm 4 m/s 754 mmHg 32%
21:00 +30°C° 0 mm 4 m/s 754 mmHg 36%
22:00 +29°C° 0 mm 4 m/s 754 mmHg 39%
23:00 +28°C° 0 mm 4 m/s 754 mmHg 42%

10 Agosto, Terça-feira

Tempo Temperatura Precipitação Vento Pressão Humidade
00:00 +27°C° 0 mm 3 m/s 754 mmHg 43%
01:00 +26°C° 0 mm 3 m/s 754 mmHg 45%
02:00 +26°C° 0 mm 3 m/s 754 mmHg 47%
03:00 +25°C° 0 mm 3 m/s 754 mmHg 47%
04:00 +25°C° 0 mm 3 m/s 754 mmHg 47%
05:00 +24°C° 0 mm 3 m/s 754 mmHg 46%
06:00 +27°C° 0 mm 3 m/s 754 mmHg 43%
07:00 +29°C° 0 mm 4 m/s 754 mmHg 40%
08:00 +32°C° 0 mm 4 m/s 754 mmHg 36%
09:00 +34°C° 0 mm 4 m/s 753 mmHg 33%
10:00 +36°C° 0 mm 4 m/s 753 mmHg 30%
11:00 +37°C° 0 mm 4 m/s 753 mmHg 26%
12:00 +38°C° 0 mm 4 m/s 753 mmHg 25%
13:00 +40°C° 0 mm 4 m/s 752 mmHg 24%
14:00 +39°C° 0 mm 3 m/s 752 mmHg 22%
15:00 +38°C° 0.1 mm 4 m/s 752 mmHg 25%
16:00 +36°C° 0.1 mm 4 m/s 751 mmHg 28%
17:00 +35°C° 0.1 mm 4 m/s 751 mmHg 31%
18:00 +33°C° 0.3 mm 3 m/s 751 mmHg 37%
19:00 +30°C° 0.3 mm 3 m/s 751 mmHg 42%
20:00 +29°C° 0.3 mm 2 m/s 752 mmHg 47%
21:00 +28°C° 0 mm 3 m/s 752 mmHg 52%
22:00 +27°C° 0 mm 3 m/s 752 mmHg 56%
23:00 +26°C° 0 mm 4 m/s 752 mmHg 61%
Mostrar mais